This is the latest recevied weather packets stored in our database for station/object KC9DRE. If no packets are shown the sender has not sent any weather packets the latest 10 day(s).
| Time | Temp. | Humidity | Pressure | Rain* | Wind** | Luminosity | Snow |
|---|---|---|---|---|---|---|---|
| 1787662599 | 17.22° C | 99% | 1020.9 hPa | 0 mm | - | 121 W/m² | - |
| 1787662295 | 16.67° C | 99% | 1021.2 hPa | 0 mm | - | 134 W/m² | - |
| 1787661991 | 16.11° C | 99% | 1020.9 hPa | 0 mm | - | 139 W/m² | - |
| 1787661686 | 16.11° C | 99% | 1020.9 hPa | 0 mm | - | 136 W/m² | - |
| 1787661385 | 15.56° C | 99% | 1020.9 hPa | 0 mm | - | 124 W/m² | - |
| 1787661085 | 15.56° C | 99% | 1021.1 hPa | 0 mm | - | 108 W/m² | - |
| 1787660779 | 15° C | 99% | 1020.9 hPa | 0 mm | - | 100 W/m² | - |
| 1787660479 | 13.89° C | 99% | 1021 hPa | 0 mm | - | 98 W/m² | - |
| 1787660179 | 13.89° C | 99% | 1021 hPa | 0 mm | - | 88 W/m² | - |
| 1787659874 | 13.89° C | 99% | 1020.9 hPa | 0 mm | - | 58 W/m² | - |
| 1787659571 | 12.78° C | 99% | 1020.9 hPa | 0 mm | - | 56 W/m² | - |
| 1787659268 | 11.67° C | 99% | 1020.8 hPa | 0 mm | - | 62 W/m² | - |
| 1787658967 | 11.67° C | 99% | 1020.9 hPa | 0 mm | - | 41 W/m² | - |
| 1787658666 | 11.11° C | 99% | 1020.8 hPa | 0 mm | - | 37 W/m² | - |
| 1787658361 | 11.11° C | 99% | 1020.9 hPa | 0 mm | - | 33 W/m² | - |
| 1787658057 | 11.11° C | 99% | 1020.6 hPa | 0 mm | - | 28 W/m² | - |
| 1787657753 | 11.11° C | 99% | 1020.7 hPa | 0 mm | - | 24 W/m² | - |
| 1787657448 | 11.11° C | 99% | 1020.2 hPa | 0 mm | - | 19 W/m² | - |
| 1787657148 | 11.11° C | 99% | 1020.5 hPa | 0 mm | - | 15 W/m² | - |
| 1787656844 | 10.56° C | 99% | 1020.5 hPa | 0 mm | - | 11 W/m² | - |
| 1787656540 | 10.56° C | 99% | 1020.5 hPa | 0 mm | - | 7 W/m² | - |
| 1787656235 | 10.56° C | 99% | 1020.5 hPa | 0 mm | - | 5 W/m² | - |
| 1787655931 | 10.56° C | 99% | 1020.1 hPa | 0 mm | - | 3 W/m² | - |
| 1787655627 | 10.56° C | 99% | 1020 hPa | 0 mm | - | 1 W/m² | - |
| 1787655325 | 10.56° C | 99% | 1019.8 hPa | 0 mm | - | 1 W/m² | - |
* Rain latest hour (hover to see other rain measurements)
** Current wind speed in m/s (hover to see current wind gust speed)